Regional Weather Roundup
Issued by NWS Charleston, SC

Current Version | Previous Version | Graphics & Text | Print | Product List | Glossary On
Versions: 1 2 3 4 5 6 7 8 9 10 11 12 13 14 15 16 17 18 19 20 21 22 23 24 25 26 27 28 29 30 31 32 33 34 35 36 37 38 39 40 41 42 43 44 45 46 47 48 49 50
000
ASUS42 KCHS 182212
RWRCHS

Regional Weather Roundup
National Weather Service Charleston SC
500 PM EST THU JAN 18 2018

NOTE: "fair" indicates few or no clouds below 12,000 feet with no
significant weather and/or obstructions to visibility.

Not all stations are quality controlled. Use data with caution,
especially dewpoint observations.

SCZ027-030-031-034>040-042>050-182300-
...Southeast South Carolina...

CITY           SKY/WX    TMP DP  RH WIND       PRES   REMARKS
N Charleston   FAIR      45  11  25 NW7       30.30R
Waterfront Prk NOT AVBL
Mount Pleasant FAIR      43  12  28 NW10      30.30S
Johns Island   FAIR      46  10  23 NW8       30.31R
Pinopolis        N/A     41  19  42 NW7       30.23S
Moncks Corner  FAIR      41  12  30 CALM      30.30S
Summerville    FAIR      45  12  26 NW5       30.31S
Beaufort MCAS  FAIR      47  13  25 NW7       30.32S
Beaufort Arpt  FAIR      45  14  29 NW6       30.32R
Hilton Head Is CLEAR     46  12  25 N5        30.33R
Walterboro     FAIR      45  14  29 NW6       30.32S
Allendale      FAIR      46   9  21 CALM      30.31S

...Southern Midlands and Pee Dee...

CITY           SKY/WX    TMP DP  RH WIND       PRES   REMARKS
Georgetown     FAIR      41  10  28 NW9       30.28F
Kingstree      FAIR      41  10  28 NW6       30.29S
Orangeburg     FAIR      45  14  28 W5        30.30S
Barnwell         N/A     48  12  23 W5        30.31S
Aiken          FAIR      45  12  26 W5        30.31F
Manning        FAIR      45  14  29 MISG      30.29S
Columbia       FAIR      46  18  32 W5        30.29S
Sumter         FAIR      44  11  26 W6        30.26S
Florence       FAIR      44  12  27 W8        30.27F
Myrtle Beach   FAIR      41  12  30 NW9       30.29R
N Myrtle Beach FAIR      41  12  30 NW6       30.26S

$$

GAZ063-065-086>088-099>101-113>116-118-119-134>141-150-182300-
...Southeast Georgia...

CITY           SKY/WX    TMP DP  RH WIND       PRES   REMARKS
Savannah Arpt  FAIR      48   7  18 NW9       30.33R
Hunter AAF     FAIR      49   8  19 NW8       30.30R
Fort Stewart   FAIR      49   9  20 NW5       30.31S
Statesboro     FAIR      49  -1  12 W6        30.32S
Sylvania       FAIR      48  14  25 NW3       30.33R
Claxton        FAIR      49  10  20 W5        30.34S

...CSRA, Central and far Southeast Georgia...

CITY           SKY/WX    TMP DP  RH WIND       PRES   REMARKS
Thomson        FAIR      48  10  21 NW7       30.35R
Augusta-Bush   FAIR      50   7  17 NW5       30.30S
Augusta-Daniel FAIR      49   8  19 W3        30.30S
Swainsboro     FAIR      46  14  27 W5        30.34R
Vidalia        FAIR      48  14  25 W5        30.34R
Eastman        FAIR      48 -27   4 W3        30.37S
Hazlehurst     FAIR      49 -12   7 CALM      30.33S
Alma           FAIR      49  11  21 W6        30.34R
Waycross       FAIR      49  -3  11 N8        30.33S
Jesup          FAIR      48   3  15 N5        30.34S
Baxley         FAIR      45   9  23 NW6       30.33F
Brunswick      FAIR      46  10  23 NW5       30.33S
Saint Simons   FAIR      50  10  20 NW6       30.32S

$$

SCZ027-028-034-036>038-045-046-048>050-GAZ119-141-182300-
...Lake and Supplemental Coastal Observations...

STATION/POSITION TIME  TEMP    WIND        PRES    WAVE   SWELL
                       AIR SEA DIR/SP/G            HT/PER HT/PER/DIR
                 (UTC) (F)     (DEG/KT/KT) (MB)    (FT/S) (FT/S/D)
Winyah Bay       NOT AVBL
Lake Murray      2120   46     300/  3/  6 1024.7S
ACE Basin NERRS  2045   45     270/  3     1026.0
Fort Pulaski     2148   46 46  300/ 10/ 12 1027.0R
Sapelo Island    2100   49     340/  5     1027.0

$$

ANZ835-935-AMZ111-154-330-350-352-354-370-450-454-472-182300-
...C-MAN and Buoy Observations...

STATION/POSITION TIME  TEMP    WIND        PRES    WAVE   SWELL
                       AIR SEA DIR/SP/G            HT/PER HT/PER/DIR
                 (UTC) (F)     (DEG/KT/KT) (MB)    (FT/S) (FT/S/D)
Buoy 41004       2150   45 68  330/ 12/ 16 1025.4R   4/ 7   3/ 60/ 7
Buoy 41008       2150   44 51  280/  2/  4 1026.9R   3/11   2/ 80/11
Folly Beach CMAN 2200   44     300/  4/  6 1026.7R
Capers Nearshore 2108   41 48  330/ 14/ 17 1025.1F
Fripp Nearshore  2108   45 46  340/ 10/ 14 1025.2F


STATION/POSITION TIME  TEMP    WIND        PRES    WAVE   SWELL
                       AIR SEA DIR/SP/G            HT/PER HT/PER/DIR
                 (UTC) (F)     (DEG/KT/KT) (MB)    (FT/S) (FT/S/D)
5E St. Marys GA  2200      49                N/A     3/11   2/ 90/11
Frying Pan Buoy  2150   40 65  320/ 16/ 19 1024.4F   4/11   3/100/11
Buoy 41025       2200   39 42  280/ 17/ 21 1021.5
Cape Lookout NC  2100          280/ 13/ 16 1022.9F
Buoy 41002       2150   54 70  340/ 17/ 25 1021.3R  13/10  10/10
Buoy 41010       NOT AVBL
St Augustine FL  2200   43 49   20/ 13/ 14 1027.0F


$$




USA.gov is the U.S. government's official web portal to all federal, state and local government web resources and services.